Flag for U.S.A. Weather past 2 weeks in Riverside, California, U.S.A.

Now
54 °F

Passing clouds.


Feels Like: 54 °F
Forecast: 56 / 77 °F
Wind: No wind

Location: Riverside Municipal Airport

Current Time: May 25, 2015 at 5:22:44 AM

Latest Report: May 25, 2015 at 4:53 AM


Visibility: 8 mi

Pressure: 29.91 "Hg

Humidity: 93%

Dew point: 52 °F

Location of RiversideLocation

Historic Weather in Riverside — Graph

°F

Riverside temperature yesterday

Maximum temperature yesterday: 70 °F (at 4:53 PM)
Minimum temperature yesterday: 58 °F (at 2:53 AM)
Average temperature yesterday: 63 °F

Past Weeks' High & Low Weather Summary

 TemperatureHumidityPressure
High86 °F (May 11, 1:53 PM)93% (May 12, 6:04 AM)30.08 "Hg (May 12, 6:04 AM)
Low51 °F (May 10, 5:53 AM)23% (May 11, 2:53 PM)29.75 "Hg (May 11, 5:53 PM)
Average62 °F65%29.92 "Hg
* Reported May 10 3:53 AM — May 25 3:53 AM, Riverside, Weather by CustomWeather, © 2015

Note: Actual official high and low records may vary slightly from our data, if they occured in-between our weather recording intervals... More about our weather records

Advertising

Riverside weather history for previous 24 hours

 ConditionsComfort  
Time TempWeatherWind HumidityBarometerVisibility
3:53 AM
Mon, May 25
55 °FPassing clouds.No wind90%29.92 "Hg9 mi
2:53 AM56 °FOvercast.No wind87%29.92 "Hg9 mi
1:53 AM57 °FPassing clouds.No wind87%29.92 "Hg10 mi
12:53 AM57 °FClear.No wind87%29.93 "Hg10 mi
11:53 PM
Sun, May 24
58 °FClear.No wind81%29.93 "Hg10 mi
10:53 PM59 °FClear.7 mph81%29.93 "Hg10 mi
9:53 PM62 °FClear.5 mph73%29.93 "Hg10 mi
8:53 PM65 °FClear.3 mph63%29.91 "Hg10 mi
7:53 PM66 °FSunny.6 mph61%29.90 "Hg10 mi
6:53 PM68 °FSunny.6 mph57%29.90 "Hg10 mi
5:53 PM69 °FPassing clouds.8 mph53%29.90 "Hg10 mi
4:53 PM70 °FPartly sunny.6 mph51%29.92 "Hg10 mi
3:53 PM69 °FPartly sunny.12 mph55%29.92 "Hg10 mi
2:53 PM68 °FOvercast.9 mph57%29.94 "Hg10 mi
1:53 PM67 °FOvercast.12 mph59%29.95 "Hg10 mi
12:53 PM67 °FOvercast.5 mph57%29.96 "Hg10 mi
12:00 PM66 °FMostly cloudy.3 mph59%30.01 "Hg10 mi
11:01 AM65 °FMore clouds than sun.6 mph63%30.02 "Hg10 mi
10:00 AM63 °FOvercast.6 mph68%30.02 "Hg10 mi
8:53 AM61 °FOvercast.8 mph72%29.98 "Hg10 mi
8:03 AM60 °FMore clouds than sun.3 mph75%30.02 "Hg10 mi
7:53 AM59 °FMostly cloudy.5 mph78%29.98 "Hg10 mi
6:53 AM59 °FOvercast.6 mph78%29.97 "Hg10 mi
5:53 AM59 °FOvercast.5 mph78%29.96 "Hg10 mi
Weather by CustomWeather, © 2015

See weather overviewHow to use our weather pages